sat.trackr.live / text

‹ back to catalog

STARLINK-34406

NORAD 64705 · 2025-142K

PAYLOAD ACTIVE UNKNOWN

§ Identity

Operator
Country
US
Launch date
2025-06-28
Launch site
AFWTR
Launch vehicle
Mass (kg)
RCS (m²)

Purposes: comms

External: N2YO · Heavens-Above · Gunter

§ Orbital elements

Epoch: 2026-05-25T05:30:25.703424Z

Period
96.11 min
Inclination
70.0002°
Eccentricity
0.0004065
Mean motion
14.98335934 rev/d
Perigee alt
569.2 km
Apogee alt
574.9 km
Semi-major
6,950.2 km
B*
2.0191e-4
RAAN
121.5569°
Arg perigee
264.4828°
Mean anomaly
95.5867°
Rev number
5,106

§ Raw data

STARLINK-344061 64705U 25142K   26145.22946416  .00002317  00000+0  20191-3 0  99962 64705  70.0002 121.5569 0004065 264.4828  95.5867 14.98335934 51062

JSON: /api/v1/satellites/64705 · /tle

For live sub-satellite position, see the globe view (requires WebGL).

§ Visibility from observer

Set your observer location to see the next 7 days of passes ≥ 10°. The values pass through the URL so the page stays shareable.

No JS? Fill the form by hand. The geolocation button needs JavaScript.